Overview Statistics Trail Chart Weather Telemetry Raw packets
 

This is the latest recevied weather packets stored in our database for station/object KD4EED. If no packets are shown the sender has not sent any weather packets the latest 10 day(s).

<< 45 46 47 48 49 50 51 >>
Time Temp. Humidity Pressure Rain* Wind** Luminosity Snow
1788372956 26.11° C 56% 1014.1 hPa - - 534 W/m² -
1788372655 25.56° C 58% 1014.2 hPa - - 526 W/m² -
1788372355 25° C 60% 1014.2 hPa - - 522 W/m² -
1788372051 25° C 61% 1014.1 hPa - - 512 W/m² -
1788371750 24.44° C 62% 1014 hPa - - 493 W/m² -
1788371447 23.89° C 64% 1014 hPa - - 487 W/m² -
1788371143 23.33° C 64% 1013.9 hPa - - 482 W/m² -
1788370850 23.33° C 66% 1014.1 hPa - - 483 W/m² -
1788370538 22.78° C 66% 1014 hPa - - 73 W/m² -
1788370233 22.78° C 65% 1014.2 hPa - - 63 W/m² -
1788369932 22.78° C 67% 1014 hPa - - 58 W/m² -
1788369628 22.22° C 66% 1014.3 hPa - - 59 W/m² -
1788369329 22.22° C 68% 1014.2 hPa - - 57 W/m² -
1788369019 22.22° C 67% 1014.1 hPa - - 55 W/m² -
1788368714 21.67° C 69% 1014 hPa - - 51 W/m² -
1788368411 21.67° C 69% 1014.1 hPa - - 47 W/m² -
1788368110 21.67° C 69% 1013.9 hPa - - 46 W/m² -
1788367810 21.67° C 70% 1013.8 hPa - - 43 W/m² -
1788367505 21.11° C 71% 1013.9 hPa - - 43 W/m² -
1788367203 21.11° C 73% 1013.8 hPa - - 48 W/m² -
1788366899 21.11° C 73% 1013.9 hPa - - 46 W/m² -
1788366597 20.56° C 75% 1014 hPa - - 79 W/m² -
1788366292 20.56° C 75% 1014 hPa - - 67 W/m² -
1788365992 20° C 77% 1014 hPa - - 67 W/m² -
1788365688 20° C 78% 1014.2 hPa - - 72 W/m² -

* Rain since midnight (hover to see other rain measurements)
** Current wind speed in m/s (hover to see current wind gust speed)